Tracking 29089 objects as of 12-Jul-2024
HD Live streaming from Space Station
objects crossing your sky now

SES-24

Track SES-24 now!


NORAD ID: 60086
Int'l Code: 2024-115A
Perigee: 1,893.8 km
Apogee: 57,503.9 km
Inclination: 23.7 °
Period: 1,136.3 minutes
Semi major axis: 36069 km
RCS: Unknown
Launch date: June 20, 2024
Source: SOCIETE EUROPEENNE DES SATELLITES (SES)
Launch site: AIR FORCE EASTERN TEST RANGE (AFETR)
Your satellite tracking list
Your tracking list is empty




NASA's NSSDC Master Catalog

Two Line Element Set (TLE):
1 60086U 24115A   24190.86943325 -.00000182  00000-0  00000-0 0  9991
2 60086  23.7148  61.0918 7708659 183.4186 163.1419  1.26732004    94
Source of the keplerian elements: AFSPC